| time (UTC) | temp C | wind direction | speed KPH | gust KPH | rain 1hr cm | rain 24hr cm | rain mn cm | humidity % | barometer mb |
| 20260509022502 | 13 | 207 | 0.0 | 0.0 | 0.00 | 0.00 | 0.00 | 69 | 1011.0 |
| 20260509022002 | 13 | 207 | 0.0 | 0.0 | 0.00 | 0.00 | 0.00 | 69 | 1011.0 |
| 20260509021502 | 13 | 207 | 0.0 | 0.0 | 0.00 | 0.00 | 0.00 | 68 | 1011.0 |
| 20260509020502 | 13 | 207 | 0.0 | 0.0 | 0.00 | 0.00 | 0.00 | 68 | 1010.9 |
| 20260509020002 | 13 | 207 | 0.0 | 0.0 | 0.00 | 0.00 | 0.00 | 68 | 1010.9 |
| 20260509015502 | 13 | 207 | 0.0 | 0.0 | 0.00 | 0.00 | 0.00 | 68 | 1010.8 |
| 20260509015002 | 13 | 207 | 0.0 | 0.0 | 0.00 | 0.00 | 0.00 | 66 | 1010.9 |
| 20260509014502 | 13 | 207 | 0.0 | 0.0 | 0.00 | 0.00 | 0.00 | 66 | 1011.0 |
| 20260509014002 | 13 | 207 | 0.0 | 0.0 | 0.00 | 0.00 | 0.00 | 65 | 1011.0 |
| 20260509013502 | 14 | 207 | 0.0 | 0.0 | 0.00 | 0.00 | 0.00 | 63 | 1011.0 |
| 20260509013002 | 14 | 207 | 0.0 | 0.0 | 0.00 | 0.00 | 0.00 | 61 | 1011.0 |
| 20260509012501 | 15 | 207 | 0.0 | 3.2 | 0.00 | 0.00 | 0.00 | 60 | 1011.0 |
| 20260509012002 | 15 | 207 | 0.0 | 3.2 | 0.00 | 0.00 | 0.00 | 60 | 1011.0 |
| 20260509011501 | 15 | 207 | 0.0 | 0.0 | 0.00 | 0.00 | 0.00 | 59 | 1010.9 |
| 20260509010501 | 16 | 207 | 0.0 | 0.0 | 0.00 | 0.00 | 0.00 | 54 | 1010.9 |
| 20260509010001 | 17 | 207 | 0.0 | 3.2 | 0.00 | 0.00 | 0.00 | 52 | 1010.9 |
| 20260509005001 | 17 | 207 | 0.0 | 6.4 | 0.00 | 0.00 | 0.00 | 50 | 1010.7 |
| 20260509004501 | 17 | 207 | 6.4 | 9.7 | 0.00 | 0.00 | 0.00 | 49 | 1010.7 |
| 20260509004001 | 18 | 216 | 0.0 | 9.7 | 0.00 | 0.00 | 0.00 | 48 | 1010.7 |
| 20260509003501 | 18 | 221 | 3.2 | 19.3 | 0.00 | 0.00 | 0.00 | 48 | 1010.8 |
| 20260509003001 | 18 | 221 | 0.0 | 19.3 | 0.00 | 0.00 | 0.00 | 48 | 1010.8 |
| 20260509002501 | 18 | 198 | 0.0 | 16.1 | 0.00 | 0.00 | 0.00 | 47 | 1010.7 |
| 20260509001501 | 18 | 193 | 12.9 | 12.9 | 0.00 | 0.00 | 0.00 | 47 | 1010.8 |
| 20260509000501 | 19 | 211 | 6.4 | 16.1 | 0.00 | 0.00 | 0.00 | 46 | 1010.9 |
| 20260509000001 | 19 | 204 | 6.4 | 25.7 | 0.00 | 0.00 | 0.00 | 46 | 1011.0 |
| 20260508235000 | 19 | 226 | 3.2 | 16.1 | 0.00 | 0.00 | 0.00 | 46 | 1011.0 |
| 20260508234501 | 19 | 210 | 3.2 | 12.9 | 0.00 | 0.00 | 0.00 | 45 | 1011.0 |
| 20260508234001 | 20 | 266 | 3.2 | 12.9 | 0.00 | 0.00 | 0.00 | 45 | 1011.0 |
| 20260508233500 | 20 | 207 | 9.7 | 19.3 | 0.00 | 0.00 | 0.00 | 45 | 1011.0 |
| 20260508233001 | 20 | 202 | 6.4 | 22.5 | 0.00 | 0.00 | 0.00 | 44 | 1011.2 |
| 20260508232000 | 20 | 207 | 12.9 | 22.5 | 0.00 | 0.00 | 0.00 | 43 | 1011.2 |
| 20260508231501 | 21 | 223 | 3.2 | 22.5 | 0.00 | 0.00 | 0.00 | 43 | 1011.4 |
| 20260508231000 | 20 | 280 | 3.2 | 22.5 | 0.00 | 0.00 | 0.00 | 43 | 1011.2 |
| 20260508230500 | 21 | 190 | 9.7 | 22.5 | 0.00 | 0.00 | 0.00 | 42 | 1011.3 |
| 20260508230000 | 21 | 151 | 6.4 | 25.7 | 0.00 | 0.00 | 0.00 | 41 | 1011.2 |
| 20260508225500 | 21 | 256 | 3.2 | 35.4 | 0.00 | 0.00 | 0.00 | 41 | 1010.7 |
| 20260508225000 | 22 | 221 | 6.4 | 35.4 | 0.00 | 0.00 | 0.00 | 39 | 1010.6 |
| 20260508224501 | 22 | 182 | 6.4 | 25.7 | 0.00 | 0.00 | 0.00 | 40 | 1010.8 |
| 20260508224000 | 22 | 210 | 6.4 | 29.0 | 0.00 | 0.00 | 0.00 | 40 | 1010.8 |
| 20260508223500 | 22 | 154 | 6.4 | 29.0 | 0.00 | 0.00 | 0.00 | 40 | 1010.8 |
| 20260508223000 | 22 | 203 | 6.4 | 29.0 | 0.00 | 0.00 | 0.00 | 40 | 1010.8 |
| 20260508222500 | 22 | 193 | 25.7 | 29.0 | 0.00 | 0.00 | 0.00 | 39 | 1010.9 |
| 20260508222000 | 22 | 256 | 9.7 | 38.6 | 0.00 | 0.00 | 0.00 | 39 | 1010.8 |
| 20260508221500 | 22 | 228 | 6.4 | 38.6 | 0.00 | 0.00 | 0.00 | 40 | 1010.7 |
| 20260508221000 | 22 | 207 | 12.9 | 38.6 | 0.00 | 0.00 | 0.00 | 37 | 1010.6 |
| 20260508220500 | 22 | 200 | 12.9 | 25.7 | 0.00 | 0.00 | 0.00 | 38 | 1010.7 |
| 20260508215500 | 22 | 216 | 9.7 | 29.0 | 0.00 | 0.00 | 0.00 | 37 | 1010.7 |
| 20260508215000 | 22 | 261 | 0.0 | 29.0 | 0.00 | 0.00 | 0.00 | 38 | 1010.8 |
| 20260508214459 | 22 | 244 | 16.1 | 29.0 | 0.00 | 0.00 | 0.00 | 36 | 1010.8 |
| 20260508214000 | 22 | 251 | 12.9 | 19.3 | 0.00 | 0.00 | 0.00 | 36 | 1010.8 |
| 20260508213000 | 22 | 256 | 6.4 | 35.4 | 0.00 | 0.00 | 0.00 | 39 | 1010.8 |
| 20260508212500 | 22 | 259 | 9.7 | 22.5 | 0.00 | 0.00 | 0.00 | 37 | 1010.8 |
| 20260508211959 | 22 | 278 | 6.4 | 22.5 | 0.00 | 0.00 | 0.00 | 39 | 1010.8 |
| 20260508211459 | 22 | 197 | 6.4 | 29.0 | 0.00 | 0.00 | 0.00 | 37 | 1010.9 |
| 20260508210959 | 22 | 245 | 12.9 | 29.0 | 0.00 | 0.00 | 0.00 | 36 | 1011.0 |
| 20260508210459 | 22 | 265 | 9.7 | 25.7 | 0.00 | 0.00 | 0.00 | 38 | 1011.0 |
| 20260508205459 | 22 | 208 | 9.7 | 35.4 | 0.00 | 0.00 | 0.00 | 41 | 1011.2 |
| 20260508204959 | 23 | 213 | 19.3 | 32.2 | 0.00 | 0.00 | 0.00 | 36 | 1011.5 |
| 20260508204459 | 22 | 261 | 0.0 | 29.0 | 0.00 | 0.00 | 0.00 | 39 | 1011.5 |
| 20260508203959 | 22 | 203 | 12.9 | 29.0 | 0.00 | 0.00 | 0.00 | 38 | 1011.6 |
| 20260508203459 | 23 | 200 | 29.0 | 29.0 | 0.00 | 0.00 | 0.00 | 38 | 1011.8 |
| 20260508202959 | 23 | 157 | 0.0 | 29.0 | 0.00 | 0.00 | 0.00 | 40 | 1011.8 |
| 20260508202459 | 23 | 249 | 6.4 | 29.0 | 0.00 | 0.00 | 0.00 | 37 | 1011.9 |
| 20260508201959 | 23 | 199 | 9.7 | 19.3 | 0.00 | 0.00 | 0.00 | 38 | 1012.0 |
| 20260508201459 | 23 | 197 | 9.7 | 25.7 | 0.00 | 0.00 | 0.00 | 38 | 1012.2 |
| 20260508200959 | 23 | 133 | 9.7 | 25.7 | 0.00 | 0.00 | 0.00 | 39 | 1012.5 |
| 20260508200459 | 22 | 261 | 3.2 | 22.5 | 0.00 | 0.00 | 0.00 | 39 | 1012.5 |
| 20260508194959 | 22 | 202 | 19.3 | 32.2 | 0.00 | 0.00 | 0.00 | 36 | 1012.3 |
| 20260508193959 | 22 | 287 | 6.4 | 32.2 | 0.00 | 0.00 | 0.00 | 38 | 1012.3 |
| 20260508193459 | 22 | 216 | 3.2 | 32.2 | 0.00 | 0.00 | 0.00 | 37 | 1012.3 |
| 20260508192959 | 22 | 241 | 22.5 | 22.5 | 0.00 | 0.00 | 0.00 | 39 | 1012.2 |
| 20260508192459 | 22 | 278 | 0.0 | 25.7 | 0.00 | 0.00 | 0.00 | 39 | 1012.2 |
| 20260508191959 | 22 | 214 | 9.7 | 25.7 | 0.00 | 0.00 | 0.00 | 39 | 1012.3 |
| 20260508191459 | 22 | 259 | 9.7 | 19.3 | 0.00 | 0.00 | 0.00 | 41 | 1012.4 |
| 20260508190458 | 22 | 10 | 6.4 | 25.7 | 0.00 | 0.00 | 0.00 | 41 | 1012.6 |
| 20260508185958 | 22 | 190 | 12.9 | 35.4 | 0.00 | 0.00 | 0.00 | 40 | 1012.6 |
| 20260508184958 | 22 | 188 | 19.3 | 25.7 | 0.00 | 0.00 | 0.00 | 40 | 1012.8 |
| 20260508184459 | 22 | 263 | 6.4 | 25.7 | 0.00 | 0.00 | 0.00 | 40 | 1012.9 |
| 20260508183958 | 22 | 290 | 9.7 | 25.7 | 0.00 | 0.00 | 0.00 | 40 | 1012.9 |
| 20260508183458 | 22 | 143 | 6.4 | 25.7 | 0.00 | 0.00 | 0.00 | 40 | 1013.0 |
| 20260508182958 | 22 | 121 | 9.7 | 41.8 | 0.00 | 0.00 | 0.00 | 40 | 1013.1 |
| 20260508182459 | 22 | 197 | 22.5 | 41.8 | 0.00 | 0.00 | 0.00 | 42 | 1013.3 |
| 20260508181958 | 22 | 297 | 6.4 | 25.7 | 0.00 | 0.00 | 0.00 | 40 | 1013.2 |
| 20260508181458 | 22 | 46 | 6.4 | 22.5 | 0.00 | 0.00 | 0.00 | 42 | 1013.4 |
| 20260508180458 | 22 | 216 | 12.9 | 22.5 | 0.00 | 0.00 | 0.00 | 41 | 1013.7 |
| 20260508175958 | 22 | 98 | 9.7 | 29.0 | 0.00 | 0.00 | 0.00 | 42 | 1013.7 |
| 20260508175458 | 22 | 197 | 3.2 | 29.0 | 0.00 | 0.00 | 0.00 | 40 | 1013.8 |
| 20260508174958 | 21 | 270 | 9.7 | 22.5 | 0.00 | 0.00 | 0.00 | 44 | 1013.9 |
| 20260508174458 | 21 | 306 | 3.2 | 22.5 | 0.00 | 0.00 | 0.00 | 45 | 1014.0 |
| 20260508173958 | 21 | 206 | 16.1 | 22.5 | 0.00 | 0.00 | 0.00 | 43 | 1014.1 |
| 20260508172958 | 21 | 195 | 6.4 | 32.2 | 0.00 | 0.00 | 0.00 | 44 | 1014.3 |
| 20260508172458 | 21 | 178 | 3.2 | 25.7 | 0.00 | 0.00 | 0.00 | 43 | 1014.4 |
| 20260508171958 | 21 | 254 | 0.0 | 25.7 | 0.00 | 0.00 | 0.00 | 45 | 1014.5 |
| 20260508171458 | 21 | 297 | 0.0 | 25.7 | 0.00 | 0.00 | 0.00 | 44 | 1014.7 |
| 20260508170957 | 21 | 193 | 6.4 | 29.0 | 0.00 | 0.00 | 0.00 | 43 | 1014.8 |
| 20260508170458 | 21 | 188 | 9.7 | 29.0 | 0.00 | 0.00 | 0.00 | 47 | 1014.7 |
| 20260508165957 | 21 | 165 | 6.4 | 25.7 | 0.00 | 0.00 | 0.00 | 43 | 1014.8 |
| 20260508165457 | 21 | 202 | 6.4 | 25.7 | 0.00 | 0.00 | 0.00 | 43 | 1014.9 |
| 20260508164457 | 21 | 204 | 6.4 | 22.5 | 0.00 | 0.00 | 0.00 | 43 | 1015.3 |
| 20260508163958 | 21 | 182 | 3.2 | 22.5 | 0.00 | 0.00 | 0.00 | 45 | 1015.4 |
| 20260508162958 | 21 | 221 | 6.4 | 25.7 | 0.00 | 0.00 | 0.00 | 45 | 1015.5 |
| 20260508162457 | 20 | 189 | 6.4 | 22.5 | 0.00 | 0.00 | 0.00 | 46 | 1015.6 |
| 20260508161957 | 20 | 186 | 9.7 | 22.5 | 0.00 | 0.00 | 0.00 | 46 | 1015.6 |
| 20260508161457 | 20 | 264 | 0.0 | 19.3 | 0.00 | 0.00 | 0.00 | 47 | 1015.8 |
| 20260508160957 | 20 | 218 | 19.3 | 32.2 | 0.00 | 0.00 | 0.00 | 48 | 1015.8 |
| 20260508160457 | 20 | 199 | 9.7 | 32.2 | 0.00 | 0.00 | 0.00 | 47 | 1015.9 |
| 20260508155957 | 20 | 213 | 6.4 | 19.3 | 0.00 | 0.00 | 0.00 | 45 | 1015.9 |
| 20260508155457 | 20 | 210 | 12.9 | 19.3 | 0.00 | 0.00 | 0.00 | 46 | 1016.0 |
| 20260508154457 | 20 | 268 | 0.0 | 22.5 | 0.00 | 0.00 | 0.00 | 46 | 1016.2 |
| 20260508153957 | 20 | 237 | 6.4 | 25.7 | 0.00 | 0.00 | 0.00 | 48 | 1016.2 |
| 20260508153457 | 19 | 273 | 3.2 | 25.7 | 0.00 | 0.00 | 0.00 | 48 | 1016.4 |
| 20260508152457 | 19 | 227 | 12.9 | 25.7 | 0.00 | 0.00 | 0.00 | 48 | 1016.5 |
| 20260508151957 | 19 | 172 | 3.2 | 22.5 | 0.00 | 0.00 | 0.00 | 50 | 1016.5 |
| 20260508150957 | 18 | 207 | 9.7 | 19.3 | 0.00 | 0.00 | 0.00 | 49 | 1016.5 |
| 20260508150527 | 18 | 204 | 12.9 | 16.1 | 0.00 | 0.00 | 0.00 | 48 | 1016.6 |
| 20260508145957 | 18 | 233 | 9.7 | 16.1 | 0.00 | 0.00 | 0.00 | 50 | 1016.6 |
| 20260508145527 | 18 | 210 | 6.4 | 25.7 | 0.00 | 0.00 | 0.00 | 52 | 1016.6 |
| 20260508144456 | 17 | 235 | 9.7 | 22.5 | 0.00 | 0.00 | 0.00 | 49 | 1016.6 |
| 20260508143456 | 17 | 195 | 12.9 | 22.5 | 0.00 | 0.00 | 0.00 | 50 | 1016.7 |
| 20260508142956 | 17 | 197 | 3.2 | 22.5 | 0.00 | 0.00 | 0.00 | 51 | 1016.5 |
| 20260508142457 | 17 | 214 | 9.7 | 22.5 | 0.00 | 0.00 | 0.00 | 55 | 1016.5 |
| 20260508141957 | 17 | 207 | 9.7 | 22.5 | 0.00 | 0.00 | 0.00 | 53 | 1016.5 |
| 20260508140956 | 16 | 157 | 6.4 | 19.3 | 0.00 | 0.00 | 0.00 | 55 | 1016.6 |
| 20260508135956 | 16 | 203 | 0.0 | 19.3 | 0.00 | 0.00 | 0.00 | 60 | 1016.6 |
| 20260508135526 | 15 | 247 | 0.0 | 19.3 | 0.00 | 0.00 | 0.00 | 60 | 1016.7 |
| 20260508134956 | 15 | 240 | 0.0 | 19.3 | 0.00 | 0.00 | 0.00 | 60 | 1016.8 |
| 20260508134456 | 15 | 207 | 9.7 | 19.3 | 0.00 | 0.00 | 0.00 | 61 | 1016.8 |
| 20260508133956 | 15 | 202 | 16.1 | 16.1 | 0.00 | 0.00 | 0.00 | 62 | 1016.8 |
| 20260508133526 | 14 | 199 | 3.2 | 16.1 | 0.00 | 0.00 | 0.00 | 61 | 1016.7 |
| 20260508132956 | 14 | 204 | 9.7 | 16.1 | 0.00 | 0.00 | 0.00 | 60 | 1016.7 |
| 20260508132456 | 13 | 238 | 3.2 | 12.9 | 0.00 | 0.00 | 0.00 | 63 | 1016.7 |
| 20260508131956 | 13 | 234 | 6.4 | 16.1 | 0.00 | 0.00 | 0.00 | 64 | 1016.7 |
| 20260508131525 | 13 | 233 | 6.4 | 16.1 | 0.00 | 0.00 | 0.00 | 63 | 1016.6 |
| 20260508130955 | 12 | 218 | 3.2 | 16.1 | 0.00 | 0.00 | 0.00 | 65 | 1016.6 |
| 20260508125956 | 12 | 216 | 6.4 | 22.5 | 0.00 | 0.00 | 0.00 | 65 | 1016.6 |
| 20260508125525 | 12 | 210 | 12.9 | 22.5 | 0.00 | 0.00 | 0.00 | 63 | 1016.8 |
| 20260508124455 | 12 | 186 | 9.7 | 12.9 | 0.00 | 0.00 | 0.00 | 62 | 1016.8 |
| 20260508123956 | 12 | 290 | 0.0 | 12.9 | 0.00 | 0.00 | 0.00 | 61 | 1016.8 |
| 20260508123525 | 12 | 196 | 0.0 | 6.4 | 0.00 | 0.00 | 0.00 | 64 | 1016.8 |
| 20260508122955 | 12 | 226 | 0.0 | 12.9 | 0.00 | 0.00 | 0.00 | 66 | 1016.8 |
| 20260508122456 | 12 | 203 | 6.4 | 12.9 | 0.00 | 0.00 | 0.00 | 61 | 1016.9 |
| 20260508121955 | 13 | 230 | 6.4 | 6.4 | 0.00 | 0.00 | 0.00 | 65 | 1016.8 |
| 20260508121455 | 12 | 241 | 0.0 | 0.0 | 0.00 | 0.00 | 0.00 | 78 | 1016.8 |
| 20260508120955 | 12 | 241 | 0.0 | 0.0 | 0.00 | 0.00 | 0.00 | 83 | 1016.8 |
| 20260508120455 | 11 | 241 | 0.0 | 0.0 | 0.00 | 0.00 | 0.00 | 90 | 1016.7 |
| 20260508120025 | 11 | 240 | 0.0 | 0.0 | 0.00 | 0.00 | 0.00 | 92 | 1016.6 |
| 20260508115455 | 10 | 241 | 0.0 | 0.0 | 0.00 | 0.00 | 0.00 | 92 | 1016.8 |
| 20260508114955 | 9 | 241 | 0.0 | 0.0 | 0.00 | 0.00 | 0.00 | 93 | 1016.8 |
| 20260508114525 | 8 | 241 | 0.0 | 0.0 | 0.00 | 0.00 | 0.00 | 92 | 1016.6 |
| 20260508114025 | 7 | 241 | 0.0 | 0.0 | 0.00 | 0.00 | 0.00 | 92 | 1016.6 |
| 20260508113455 | 6 | 240 | 0.0 | 0.0 | 0.00 | 0.00 | 0.00 | 92 | 1016.4 |
| 20260508113025 | 4 | 242 | 0.0 | 0.0 | 0.00 | 0.00 | 0.00 | 92 | 1016.3 |
| 20260508112455 | 3 | 242 | 0.0 | 0.0 | 0.00 | 0.00 | 0.00 | 92 | 1016.2 |
| 20260508111955 | 1 | 242 | 0.0 | 0.0 | 0.00 | 0.00 | 0.00 | 92 | 1016.0 |
| 20260508111455 | 1 | 242 | 0.0 | 0.0 | 0.00 | 0.00 | 0.00 | 92 | 1016.0 |
| 20260508110955 | 1 | 242 | 0.0 | 0.0 | 0.00 | 0.00 | 0.00 | 92 | 1016.0 |
| 20260508110524 | 1 | 242 | 0.0 | 0.0 | 0.00 | 0.00 | 0.00 | 92 | 1016.1 |
| 20260508110024 | 1 | 241 | 0.0 | 0.0 | 0.00 | 0.00 | 0.00 | 92 | 1016.0 |
| 20260508104954 | 1 | 242 | 0.0 | 0.0 | 0.00 | 0.00 | 0.00 | 92 | 1016.2 |
| 20260508104524 | 1 | 242 | 0.0 | 0.0 | 0.00 | 0.00 | 0.00 | 92 | 1016.1 |
| 20260508103454 | 1 | 242 | 0.0 | 0.0 | 0.00 | 0.00 | 0.00 | 92 | 1016.1 |
| 20260508102954 | 1 | 242 | 0.0 | 0.0 | 0.00 | 0.00 | 0.00 | 92 | 1016.1 |
| 20260508102025 | 1 | 240 | 0.0 | 0.0 | 0.00 | 0.00 | 0.00 | 92 | 1016.0 |
| 20260508101454 | 1 | 242 | 0.0 | 0.0 | 0.00 | 0.00 | 0.00 | 92 | 1015.9 |
| 20260508100954 | 1 | 242 | 0.0 | 0.0 | 0.00 | 0.00 | 0.00 | 92 | 1015.9 |
| 20260508100024 | 1 | 242 | 0.0 | 0.0 | 0.00 | 0.00 | 0.00 | 92 | 1015.9 |
| 20260508095454 | 1 | 242 | 0.0 | 0.0 | 0.00 | 0.00 | 0.00 | 92 | 1016.0 |
| 20260508094954 | 2 | 242 | 0.0 | 0.0 | 0.00 | 0.00 | 0.00 | 92 | 1015.9 |
| 20260508094454 | 2 | 242 | 0.0 | 0.0 | 0.00 | 0.00 | 0.00 | 92 | 1015.9 |
| 20260508094024 | 1 | 242 | 0.0 | 0.0 | 0.00 | 0.00 | 0.00 | 92 | 1015.9 |
| 20260508093454 | 1 | 242 | 0.0 | 0.0 | 0.00 | 0.00 | 0.00 | 92 | 1016.0 |
| 20260508092954 | 2 | 242 | 0.0 | 0.0 | 0.00 | 0.00 | 0.00 | 92 | 1016.0 |
| 20260508092524 | 2 | 242 | 0.0 | 0.0 | 0.00 | 0.00 | 0.00 | 92 | 1015.9 |
| 20260508091954 | 2 | 242 | 0.0 | 0.0 | 0.00 | 0.00 | 0.00 | 92 | 1015.9 |
| 20260508091453 | 2 | 242 | 0.0 | 0.0 | 0.00 | 0.00 | 0.00 | 92 | 1015.8 |
| 20260508090453 | 2 | 242 | 0.0 | 0.0 | 0.00 | 0.00 | 0.00 | 92 | 1015.9 |
| 20260508090023 | 2 | 242 | 0.0 | 0.0 | 0.00 | 0.00 | 0.00 | 92 | 1015.8 |
| 20260508084953 | 2 | 241 | 0.0 | 0.0 | 0.00 | 0.00 | 0.00 | 92 | 1015.8 |
| 20260508084453 | 2 | 242 | 0.0 | 0.0 | 0.00 | 0.00 | 0.00 | 92 | 1015.8 |
| 20260508084023 | 1 | 242 | 0.0 | 0.0 | 0.00 | 0.00 | 0.00 | 92 | 1015.7 |
| 20260508083524 | 1 | 242 | 0.0 | 0.0 | 0.00 | 0.00 | 0.00 | 92 | 1015.7 |
| 20260508082953 | 1 | 242 | 0.0 | 0.0 | 0.00 | 0.00 | 0.00 | 92 | 1015.7 |
| 20260508082023 | 2 | 242 | 0.0 | 0.0 | 0.00 | 0.00 | 0.00 | 92 | 1015.9 |
| 20260508081523 | 2 | 242 | 0.0 | 0.0 | 0.00 | 0.00 | 0.00 | 92 | 1015.9 |
| 20260508081023 | 2 | 242 | 0.0 | 0.0 | 0.00 | 0.00 | 0.00 | 91 | 1015.9 |
| 20260508080523 | 2 | 241 | 0.0 | 0.0 | 0.00 | 0.00 | 0.00 | 91 | 1015.9 |
| 20260508075953 | 2 | 242 | 0.0 | 0.0 | 0.00 | 0.00 | 0.00 | 91 | 1015.9 |
| 20260508075523 | 2 | 241 | 0.0 | 0.0 | 0.00 | 0.00 | 0.00 | 91 | 1015.8 |
| 20260508075023 | 2 | 242 | 0.0 | 0.0 | 0.00 | 0.00 | 0.00 | 91 | 1015.9 |
| 20260508074523 | 2 | 242 | 0.0 | 0.0 | 0.00 | 0.00 | 0.00 | 91 | 1015.8 |
| 20260508073953 | 2 | 242 | 0.0 | 0.0 | 0.00 | 0.00 | 0.00 | 91 | 1015.9 |
| 20260508073453 | 2 | 242 | 0.0 | 0.0 | 0.00 | 0.00 | 0.00 | 91 | 1015.9 |
| 20260508073023 | 2 | 242 | 0.0 | 0.0 | 0.00 | 0.00 | 0.00 | 91 | 1015.9 |
| 20260508072522 | 2 | 242 | 0.0 | 0.0 | 0.00 | 0.00 | 0.00 | 91 | 1015.9 |
| 20260508072023 | 2 | 242 | 0.0 | 0.0 | 0.00 | 0.00 | 0.00 | 91 | 1015.8 |
| 20260508071523 | 2 | 242 | 0.0 | 0.0 | 0.00 | 0.00 | 0.00 | 91 | 1015.9 |
| 20260508070952 | 3 | 242 | 0.0 | 0.0 | 0.00 | 0.00 | 0.00 | 91 | 1016.0 |
| 20260508065522 | 3 | 242 | 0.0 | 0.0 | 0.00 | 0.00 | 0.00 | 91 | 1016.0 |
| 20260508064952 | 3 | 242 | 0.0 | 0.0 | 0.00 | 0.00 | 0.00 | 91 | 1016.0 |
| 20260508063522 | 3 | 242 | 0.0 | 0.0 | 0.00 | 0.00 | 0.00 | 90 | 1016.1 |
| 20260508063022 | 3 | 242 | 0.0 | 0.0 | 0.00 | 0.00 | 0.00 | 90 | 1016.1 |
| 20260508062522 | 3 | 242 | 0.0 | 0.0 | 0.00 | 0.00 | 0.00 | 90 | 1016.1 |
| 20260508062022 | 3 | 242 | 0.0 | 0.0 | 0.00 | 0.00 | 0.00 | 90 | 1016.2 |
| 20260508061522 | 3 | 242 | 0.0 | 0.0 | 0.00 | 0.00 | 0.00 | 90 | 1016.1 |
| 20260508060522 | 3 | 242 | 0.0 | 0.0 | 0.00 | 0.00 | 0.00 | 90 | 1016.2 |
| 20260508055522 | 2 | 242 | 0.0 | 0.0 | 0.00 | 0.00 | 0.00 | 90 | 1016.3 |
| 20260508054522 | 2 | 242 | 0.0 | 0.0 | 0.00 | 0.00 | 0.00 | 89 | 1016.3 |
| 20260508054022 | 3 | 240 | 0.0 | 0.0 | 0.00 | 0.00 | 0.00 | 89 | 1016.3 |
| 20260508053522 | 3 | 242 | 0.0 | 0.0 | 0.00 | 0.00 | 0.00 | 89 | 1016.3 |
| 20260508053022 | 3 | 241 | 0.0 | 0.0 | 0.00 | 0.00 | 0.00 | 89 | 1016.4 |
| 20260508052522 | 3 | 242 | 0.0 | 0.0 | 0.00 | 0.00 | 0.00 | 89 | 1016.4 |
| 20260508052022 | 3 | 242 | 0.0 | 0.0 | 0.00 | 0.00 | 0.00 | 89 | 1016.4 |
| 20260508051522 | 3 | 242 | 0.0 | 0.0 | 0.00 | 0.00 | 0.00 | 89 | 1016.3 |
| 20260508050021 | 3 | 242 | 0.0 | 0.0 | 0.00 | 0.00 | 0.00 | 88 | 1016.2 |
| 20260508045522 | 3 | 240 | 0.0 | 0.0 | 0.00 | 0.00 | 0.00 | 87 | 1016.1 |
| 20260508045022 | 3 | 242 | 0.0 | 0.0 | 0.00 | 0.00 | 0.00 | 87 | 1016.2 |
| 20260508044521 | 3 | 240 | 0.0 | 0.0 | 0.00 | 0.00 | 0.00 | 87 | 1016.1 |
| 20260508043451 | 3 | 241 | 0.0 | 0.0 | 0.00 | 0.00 | 0.00 | 87 | 1016.1 |
| 20260508043021 | 3 | 242 | 0.0 | 0.0 | 0.00 | 0.00 | 0.00 | 87 | 1016.1 |
| 20260508042521 | 4 | 240 | 0.0 | 0.0 | 0.00 | 0.00 | 0.00 | 87 | 1016.2 |
| 20260508042021 | 4 | 240 | 0.0 | 0.0 | 0.00 | 0.00 | 0.00 | 87 | 1016.1 |
| 20260508041521 | 4 | 242 | 0.0 | 0.0 | 0.00 | 0.00 | 0.00 | 86 | 1016.1 |
| 20260508041021 | 4 | 241 | 0.0 | 0.0 | 0.00 | 0.00 | 0.00 | 86 | 1016.1 |
| 20260508040521 | 4 | 242 | 0.0 | 0.0 | 0.00 | 0.00 | 0.00 | 86 | 1016.1 |
| 20260508040021 | 5 | 242 | 0.0 | 0.0 | 0.00 | 0.00 | 0.00 | 85 | 1016.1 |
| 20260508035521 | 5 | 241 | 0.0 | 0.0 | 0.00 | 0.00 | 0.00 | 86 | 1016.1 |
| 20260508035021 | 5 | 240 | 0.0 | 0.0 | 0.00 | 0.00 | 0.00 | 86 | 1016.1 |
| 20260508034021 | 5 | 242 | 0.0 | 0.0 | 0.00 | 0.00 | 0.00 | 85 | 1016.2 |
| 20260508033521 | 5 | 242 | 0.0 | 0.0 | 0.00 | 0.00 | 0.00 | 85 | 1016.2 |
| 20260508033021 | 5 | 242 | 0.0 | 0.0 | 0.00 | 0.00 | 0.00 | 85 | 1016.3 |
| 20260508032521 | 5 | 242 | 0.0 | 0.0 | 0.00 | 0.00 | 0.00 | 84 | 1016.2 |
| 20260508032021 | 5 | 242 | 0.0 | 3.2 | 0.00 | 0.00 | 0.00 | 84 | 1016.2 |
| 20260508031520 | 5 | 240 | 0.0 | 3.2 | 0.00 | 0.00 | 0.00 | 84 | 1016.2 |
| 20260508031021 | 5 | 240 | 0.0 | 0.0 | 0.00 | 0.00 | 0.00 | 82 | 1016.2 |
| 20260508030021 | 5 | 242 | 0.0 | 0.0 | 0.00 | 0.00 | 0.00 | 81 | 1016.2 |
| 20260508025520 | 6 | 242 | 0.0 | 0.0 | 0.00 | 0.00 | 0.00 | 80 | 1016.0 |
| 20260508024521 | 6 | 242 | 0.0 | 0.0 | 0.00 | 0.00 | 0.00 | 81 | 1016.1 |
| 20260508024021 | 6 | 242 | 0.0 | 0.0 | 0.00 | 0.00 | 0.00 | 81 | 1016.0 |
| 20260508023521 | 6 | 241 | 0.0 | 0.0 | 0.00 | 0.00 | 0.00 | 80 | 1016.0 |
| 20260508023020 | 6 | 242 | 0.0 | 0.0 | 0.00 | 0.00 | 0.00 | 79 | 1016.0 |
| 20260508022521 | 6 | 242 | 0.0 | 0.0 | 0.00 | 0.00 | 0.00 | 76 | 1015.9 |